Flag for U.S.A. Weather past 2 weeks in Jersey City, New Jersey, U.S.A.

Now
81 °F

Passing clouds.


Feels Like: 82 °F
Forecast: 77 / 88 °F
Wind: 6 mph from Southwest

Location: Newark International Airport

Current Time: Aug 3, 2015 at 11:57:06 PM

Latest Report: Aug 3, 2015 at 10:51 PM


Visibility: 10 mi

Pressure: 29.80 "Hg

Humidity: 51%

Dew point: 61 °F

Location of Jersey CityLocation

Historic Weather in Jersey City — Graph

°F

Jersey City temperature yesterday

Maximum temperature yesterday: 91 °F (at 2:51 PM)
Minimum temperature yesterday: 69 °F (at 5:51 AM)
Average temperature yesterday: 81 °F

Past Weeks' High & Low Weather Summary

 TemperatureHumidityPressure
High96 °F (Jul 20, 1:51 PM)94% (Jul 31, 1:51 AM)30.03 "Hg (Jul 31, 1:51 AM)
Low66 °F (Jul 25, 5:51 AM)22% (Jul 24, 3:51 PM)29.57 "Hg (Jul 21, 5:51 PM)
Average82 °F52%29.86 "Hg
* Reported Jul 19 9:51 PM — Aug 3 9:51 PM, Jersey City, Weather by CustomWeather, © 2015

Note: Actual official high and low records may vary slightly from our data, if they occured in-between our weather recording intervals... More about our weather records

Advertising

Jersey City weather history for previous 24 hours

 ConditionsComfort  
Time TempWeatherWind HumidityBarometerVisibility
9:51 PM
Mon, Aug 3
84 °FPassing clouds.10 mph41%29.80 "Hg10 mi
8:51 PM86 °FBroken clouds.13 mph39%29.78 "Hg10 mi
7:51 PM88 °FBroken clouds.15 mph36%29.77 "Hg10 mi
6:51 PM90 °FBroken clouds.17 mph32%29.76 "Hg10 mi
5:51 PM91 °FBroken clouds.17 mph34%29.76 "Hg10 mi
4:51 PM92 °FBroken clouds.17 mph33%29.76 "Hg10 mi
3:51 PM92 °FScattered clouds.15 mph32%29.77 "Hg10 mi
2:51 PM92 °FScattered clouds.18 mph35%29.78 "Hg10 mi
1:51 PM92 °FScattered clouds.15 mph33%29.79 "Hg10 mi
12:51 PM88 °FScattered clouds.13 mph39%29.81 "Hg10 mi
11:51 AM89 °FScattered clouds.14 mph42%29.83 "Hg10 mi
10:51 AM85 °FScattered clouds.14 mph45%29.84 "Hg10 mi
9:51 AM84 °FPassing clouds.13 mph48%29.84 "Hg10 mi
8:51 AM79 °FSunny.10 mph62%29.84 "Hg10 mi
7:51 AM76 °FPassing clouds.7 mph69%29.85 "Hg10 mi
6:51 AM73 °FPassing clouds.5 mph74%29.84 "Hg10 mi
5:51 AM71 °FPassing clouds.6 mph73%29.84 "Hg10 mi
4:51 AM73 °FPassing clouds.8 mph66%29.84 "Hg10 mi
3:51 AM74 °FClear.6 mph62%29.84 "Hg10 mi
2:51 AM74 °FClear.8 mph62%29.84 "Hg10 mi
1:51 AM75 °FPassing clouds.9 mph55%29.85 "Hg10 mi
12:51 AM77 °FPassing clouds.6 mph50%29.87 "Hg10 mi
11:51 PM
Sun, Aug 2
79 °FPassing clouds.5 mph47%29.86 "Hg10 mi
Weather by CustomWeather, © 2015

See weather overviewHow to use our weather pages